Location: Innsbruck
(47.2657°N, 11.3914°E)
Time: 08:38:37
(UTC+02:00)

Envisat - Pass Details

Date: 26 September 2021
Orbit: 764 x 766 km, 98.2° (Epoch: 23 October)

Event Time Altitude Azimuth Distance (km) Brightness Sun altitude
Rises 05:19:39 0° 26° (NNE) 3,242 6.9 -18.7°
Reaches altitude 10° 05:22:33 10° 43° (NE) 2,310 6.4 -18.2°
Maximum altitude 05:26:20 21° 91° (E) 1,685 5.6 -17.6°
Drops below altitude 10° 05:30:05 10° 139° (SE) 2,297 5.8 -17.0°
Sets 05:32:56 0° 155° (SSE) 3,217 6.3 -16.5°
